Date String (YYYY-MM-DD hh:mm:ss) UTC,Instrument flags,Ambient pressure (hPa),Sample flow (lpm),Bypass flow (lpm),Sample temperature (°C),Ambient temperature (°C),ASC tube jacket temperature (°C),LED temperature (°C),Box temperature (°C),Sample RH (%),Span deviation,Mass concentration (μg/m³),Mass concentration (μg/m³),Mass concentration (μg/m³)
DateTimeUTC,F1_M11,P_M11,Q1_M11,Q2_M11,T1_M11,T2_M11,T3_M11,T4_M11,T5_M11,U1_M11,ZSPAN_M11,X0_M11,X2_M11,X1_M11
2022-05-31 05:00:00,,0821.0,5.01,0.00,24.8,23.5,00.0,33.7,26.7,13.7,0000.0,0002.08,0000.85,0000.55
2022-05-31 05:01:00,,0820.9,5.01,0.00,24.8,23.5,00.0,33.7,26.7,13.7,0000.0,0002.09,0000.84,0000.55
2022-05-31 05:02:00,,0821.0,5.01,0.00,24.8,23.5,00.0,33.7,26.7,13.6,0000.0,0002.09,0000.82,0000.55
2022-05-31 05:03:00,,0821.0,4.98,0.00,24.8,23.5,00.0,33.7,26.7,13.5,0000.0,0002.18,0000.83,0000.55
2022-05-31 05:04:00,,0820.9,5.02,0.00,24.8,23.5,00.0,33.7,26.7,13.6,0000.0,0002.23,0000.85,0000.56
2022-05-31 05:05:00,,0821.0,5.00,0.00,24.8,23.5,00.0,33.7,26.7,13.4,0000.0,0002.85,0000.91,0000.56
2022-05-31 05:06:00,,0821.0,4.99,0.00,24.8,23.5,00.0,33.7,26.7,13.0,0000.0,0002.95,0000.91,0000.56
2022-05-31 05:07:00,,0821.0,5.01,0.00,24.8,23.5,00.0,33.7,26.7,13.3,0000.0,0002.55,0000.88,0000.56
2022-05-31 05:08:00,,0821.0,5.00,0.00,24.8,23.5,00.0,33.7,26.6,13.5,0000.0,0002.24,0000.85,0000.55
2022-05-31 05:09:00,,0821.0,4.98,0.00,24.8,23.5,00.0,33.7,26.6,13.5,0000.0,0002.16,0000.84,0000.56
2022-05-31 05:10:00,,0821.1,5.01,0.00,24.8,23.5,00.0,33.7,26.6,13.4,0000.0,0002.15,0000.85,0000.55
2022-05-31 05:11:00,,0821.1,5.00,0.00,24.8,23.6,00.0,33.7,26.6,13.5,0000.0,0002.06,0000.83,0000.55
2022-05-31 05:12:00,,0821.1,4.99,0.00,24.8,23.6,00.0,33.7,26.7,13.4,0000.0,0002.06,0000.84,0000.56
2022-05-31 05:13:00,,0821.1,5.01,0.00,24.8,23.6,00.0,33.7,26.7,13.4,0000.0,0002.02,0000.84,0000.56
2022-05-31 05:14:00,,0821.1,5.00,0.00,24.8,23.6,00.0,33.7,26.7,13.2,0000.0,0002.04,0000.83,0000.56
2022-05-31 05:15:00,,0821.1,5.00,0.00,24.8,23.6,00.0,33.7,26.7,13.1,0000.0,0002.04,0000.83,0000.56
2022-05-31 05:16:00,,0821.1,4.99,0.00,24.8,23.6,00.0,33.7,26.7,13.1,0000.0,0001.43,0000.76,0000.54
2022-05-31 05:17:00,,0821.1,5.01,0.00,24.8,23.6,00.0,33.7,26.7,13.1,0000.0,0001.25,0000.74,0000.54
2022-05-31 05:18:00,,0821.0,4.99,0.00,24.8,23.6,00.0,33.7,26.7,12.7,0000.0,0001.36,0000.78,0000.54
2022-05-31 05:19:00,,0821.0,5.01,0.00,24.8,23.6,00.0,33.7,26.7,12.4,0000.0,0001.45,0000.81,0000.54
2022-05-31 05:20:00,,0821.1,5.00,0.00,24.8,23.6,00.0,33.7,26.7,12.7,0000.0,0001.45,0000.80,0000.54
2022-05-31 05:21:00,,0821.1,4.99,0.00,24.8,23.6,00.0,33.7,26.7,12.8,0000.0,0001.44,0000.80,0000.54
2022-05-31 05:22:00,,0821.1,5.01,0.00,24.8,23.6,00.0,33.7,26.7,12.6,0000.0,0001.43,0000.80,0000.54
2022-05-31 05:23:00,,0821.1,4.99,0.00,24.8,23.7,00.0,33.7,26.7,12.6,0000.0,0001.40,0000.79,0000.54
2022-05-31 05:24:00,,0821.1,5.01,0.00,24.8,23.7,00.0,33.7,26.7,12.5,0000.0,0001.39,0000.79,0000.54
2022-05-31 05:25:00,,0821.1,4.99,0.00,24.8,23.7,00.0,33.7,26.7,12.5,0000.0,0001.31,0000.80,0000.53
2022-05-31 05:26:00,,0821.1,5.01,0.00,24.8,23.7,00.0,33.7,26.7,12.5,0000.0,0001.36,0000.82,0000.54
2022-05-31 05:27:00,,0821.0,4.99,0.00,24.8,23.7,00.0,33.7,26.7,12.4,0000.0,0001.42,0000.83,0000.54
2022-05-31 05:28:00,,0821.0,5.01,0.00,24.8,23.7,00.0,33.7,26.7,12.4,0000.0,0001.52,0000.87,0000.54
2022-05-31 05:29:00,,0821.0,4.99,0.00,24.8,23.8,00.0,33.7,26.7,12.5,0000.0,0001.40,0000.82,0000.53
2022-05-31 05:30:00,,0821.1,5.01,0.00,24.8,23.8,00.0,33.7,26.7,12.4,0000.0,0001.42,0000.82,0000.52
2022-05-31 05:31:00,,0821.1,4.99,0.00,24.8,23.8,00.0,33.7,26.8,12.3,0000.0,0001.39,0000.80,0000.51
2022-05-31 05:32:00,,0821.1,5.01,0.00,24.8,23.8,00.0,33.7,26.8,12.3,0000.0,0001.34,0000.77,0000.51
2022-05-31 05:33:00,,0821.1,4.99,0.00,24.8,23.8,00.0,33.7,26.8,12.3,0000.0,0001.29,0000.74,0000.49
2022-05-31 05:34:00,,0821.1,5.00,0.00,24.9,23.9,00.0,33.7,26.8,12.1,0000.0,0001.24,0000.73,0000.49
2022-05-31 05:35:00,,0821.1,5.00,0.00,24.9,23.9,00.0,33.7,26.8,12.1,0000.0,0001.26,0000.74,0000.49
2022-05-31 05:36:00,,0821.1,5.01,0.00,24.9,23.9,00.0,33.7,26.8,12.2,0000.0,0001.22,0000.72,0000.49
2022-05-31 05:37:00,,0821.1,5.00,0.00,24.9,23.9,00.0,33.8,26.9,12.3,0000.0,0001.25,0000.73,0000.49
2022-05-31 05:38:00,,0821.2,5.00,0.00,24.9,23.9,00.0,33.8,26.9,11.9,0000.0,0001.37,0000.77,0000.49
2022-05-31 05:39:00,,0821.1,5.01,0.00,24.9,24.0,00.0,33.8,26.9,11.8,0000.0,0001.35,0000.76,0000.49
2022-05-31 05:40:00,,0821.1,4.99,0.00,24.9,24.0,00.0,33.8,26.9,11.9,0000.0,0001.34,0000.76,0000.48
2022-05-31 05:41:00,,0821.1,5.01,0.00,24.9,23.9,00.0,33.8,26.9,11.7,0000.0,0001.32,0000.77,0000.49
2022-05-31 05:42:00,,0821.2,5.00,0.00,24.9,23.9,00.0,33.8,26.9,11.7,0000.0,0001.29,0000.77,0000.50
2022-05-31 05:43:00,,0821.1,5.01,0.00,24.9,23.9,00.0,33.8,26.9,12.0,0000.0,0001.33,0000.77,0000.50
2022-05-31 05:44:00,,0821.1,5.00,0.00,24.9,23.9,00.0,33.8,26.9,11.9,0000.0,0001.43,0000.81,0000.51
2022-05-31 05:45:00,,0821.1,4.99,0.00,24.9,23.9,00.0,33.8,26.9,11.9,0000.0,0001.51,0000.84,0000.51
2022-05-31 05:46:00,,0821.2,5.00,0.00,24.9,23.9,00.0,33.8,26.8,11.8,0000.0,0001.60,0000.85,0000.51
2022-05-31 05:47:00,,0821.1,5.01,0.00,24.9,23.9,00.0,33.8,26.8,12.1,0000.0,0001.57,0000.83,0000.51
2022-05-31 05:48:00,,0821.1,5.00,0.00,24.9,23.9,00.0,33.8,26.8,12.2,0000.0,0001.48,0000.81,0000.50
2022-05-31 05:49:00,,0821.1,4.98,0.00,24.9,23.8,00.0,33.8,26.7,12.3,0000.0,0001.84,0000.78,0000.51
2022-05-31 05:50:00,,0821.2,5.01,0.00,24.8,23.8,00.0,33.8,26.7,12.2,0000.0,0002.40,0000.78,0000.51
2022-05-31 05:51:00,,0821.2,4.99,0.00,24.8,23.8,00.0,33.8,26.7,12.1,0000.0,0002.43,0000.80,0000.52
2022-05-31 05:52:00,,0821.2,5.00,0.00,24.8,23.8,00.0,33.8,26.7,12.0,0000.0,0002.41,0000.77,0000.53
2022-05-31 05:53:00,,0821.2,4.99,0.00,24.8,23.7,00.0,33.8,26.7,12.2,0000.0,0002.52,0000.81,0000.54
2022-05-31 05:54:00,,0821.2,5.01,0.00,24.8,23.7,00.0,33.8,26.7,12.2,0000.0,0002.48,0000.80,0000.54
2022-05-31 05:55:00,,0821.2,4.99,0.00,24.8,23.7,00.0,33.8,26.6,12.2,0000.0,0002.54,0000.81,0000.54
2022-05-31 05:56:00,,0821.1,5.01,0.00,24.8,23.7,00.0,33.8,26.7,12.2,0000.0,0002.55,0000.80,0000.54
2022-05-31 05:57:00,,0821.1,4.99,0.00,24.8,23.7,00.0,33.8,26.7,12.0,0000.0,0002.50,0000.80,0000.55
2022-05-31 05:58:00,,0821.1,5.00,0.00,24.8,23.7,00.0,33.8,26.7,11.6,0000.0,0002.61,0000.84,0000.55
2022-05-31 05:59:00,,0821.1,4.99,0.00,24.8,23.8,00.0,33.8,26.7,11.9,0000.0,0002.72,0000.87,0000.56
